Weather History for KALN - May, 2013

Change the Weather History Date:

Sunday, May 12, 2013

  Actual Average Record
Temperature  
Mean Temperature 48 °F -  
Max Temperature 60 °F 73 °F 87 °F (2000)
Min Temperature 38 °F 55 °F 38 °F (2013)
Degree Days  
Heating Degree Days 16    
Moisture  
Dew Point 30 °F    
Average Humidity 56    
Maximum Humidity 79    
Minimum Humidity 20    
Precipitation  
Precipitation 0.02 in - - ()
Sea Level Pressure  
Sea Level Pressure 30.18 in    
Wind  
Wind Speed 6 mph (WNW)    
Max Wind Speed 17 mph    
Max Gust Speed 29 mph    
Visibility 10 miles    
Events      
Averages and records for this station are not official NWS values.
T = Trace of Precipitation, MM = Missing Value Source: NWS Daily Summary

Daily Weather History Graph

Daily Weather History Graph

Search for Another Location

Airport or City:

Trip Planner

Search our weather history database for the weather conditions in past years. The results will help you decide how hot, cold, wet, or windy it might be!

Date:

Astronomy

May. 12, 2013 Rise Set
Actual Time 5:50 AM CDT 8:03 PM CDT
Civil Twilight 5:20 AM CDT 8:33 PM CDT
Nautical Twilight 4:43 AM CDT 9:09 PM CDT
Astronomical Twilight 4:04 AM CDT 9:49 PM CDT
Moon 7:45 AM CDT (5/12) 10:30 PM CDT (5/12)
Length of Visible Light 15h 12m
Length of Day
14h 13m
Waxing Crescent, 7% of the Moon is Illuminated
May 12
Waxing Crescent
May 17
First Quarter
May 24
Full
May 31
Last Quarter
Jun 8
New

Hourly Weather History & Observations

Time (CDT) Temp. Windchill Dew Point Humidity Pressure Visibility Wind Dir Wind Speed Gust Speed Precip Events Conditions
12:15 AM 45.7 °F 43.4 °F 32.9 °F 61% 30.17 in 10.0 mi WNW 4.6 mph - N/A   Clear
12:35 AM 44.6 °F 42.2 °F 33.3 °F 64% 30.17 in 10.0 mi WNW 4.6 mph - N/A   Clear
12:55 AM 45.0 °F 43.5 °F 33.1 °F 63% 30.17 in 10.0 mi WNW 3.5 mph - N/A   Clear
1:15 AM 43.9 °F 41.3 °F 34.7 °F 70% 30.17 in 10.0 mi WNW 4.6 mph - N/A   Clear
1:35 AM 43.0 °F 39.5 °F 34.9 °F 73% 30.16 in 10.0 mi WNW 5.8 mph - N/A   Clear
1:55 AM 43.2 °F 39.7 °F 34.3 °F 71% 30.16 in 10.0 mi WNW 5.8 mph - N/A   Clear
2:15 AM 41.9 °F 39.0 °F 34.7 °F 76% 30.16 in 10.0 mi WNW 4.6 mph - N/A   Clear
2:35 AM 41.7 °F 38.0 °F 34.0 °F 74% 30.16 in 10.0 mi WNW 5.8 mph - N/A   Clear
2:55 AM 42.3 °F 39.4 °F 33.8 °F 72% 30.16 in 10.0 mi WNW 4.6 mph - N/A   Clear
3:15 AM 43.7 °F 40.3 °F 30.6 °F 60% 30.15 in 10.0 mi WNW 5.8 mph - N/A   Clear
3:35 AM 42.3 °F 37.9 °F 32.0 °F 67% 30.16 in 10.0 mi WNW 6.9 mph - N/A   Clear
3:55 AM 42.1 °F 39.2 °F 31.6 °F 67% 30.16 in 10.0 mi WNW 4.6 mph - N/A   Clear
4:15 AM 41.0 °F 37.1 °F 32.4 °F 71% 30.17 in 10.0 mi WNW 5.8 mph - N/A   Clear
4:35 AM 41.7 °F 38.0 °F 31.3 °F 66% 30.17 in 10.0 mi WNW 5.8 mph - N/A   Clear
4:55 AM 40.3 °F 36.3 °F 32.2 °F 73% 30.18 in 10.0 mi WNW 5.8 mph - N/A   Clear
5:15 AM 39.4 °F 35.2 °F 32.5 °F 76% 30.18 in 10.0 mi WNW 5.8 mph - N/A   Clear
5:35 AM 38.3 °F 34.8 °F 32.2 °F 79% 30.18 in 10.0 mi WNW 4.6 mph - 0.01 in   Clear
5:55 AM 38.3 °F 34.8 °F 32.0 °F 78% 30.19 in 10.0 mi West 4.6 mph - 0.01 in   Clear
6:15 AM 39.4 °F 36.1 °F 31.8 °F 74% 30.19 in 10.0 mi WNW 4.6 mph - N/A   Clear
6:35 AM 41.0 °F 38.0 °F 32.0 °F 70% 30.19 in 10.0 mi WNW 4.6 mph - N/A   Clear
7:45 AM 46.4 °F 44.3 °F 26.6 °F 46% 30.21 in 10.0 mi WNW 4.6 mph - N/A   Clear
8:50 AM 50.0 °F - 26.6 °F 40% 30.22 in 10.0 mi WNW 6.9 mph - N/A   Clear
10:45 AM 53.6 °F - 19.4 °F 26% 30.23 in 10.0 mi WNW 17.3 mph 23.0 mph N/A   Clear
11:45 AM 55.4 °F - 19.4 °F 25% 30.23 in 10.0 mi WNW 17.3 mph 28.8 mph N/A   Clear
12:45 PM 55.4 °F - 19.4 °F 25% 30.22 in 10.0 mi WNW 11.5 mph 17.3 mph N/A   Clear
1:45 PM 57.2 °F - 21.2 °F 25% 30.21 in 10.0 mi NW 11.5 mph - N/A   Clear
2:50 PM 59.0 °F - 24.8 °F 27% 30.19 in 10.0 mi West 11.5 mph - N/A   Partly Cloudy
3:50 PM 59.0 °F - 21.2 °F 23% 30.17 in 10.0 mi WNW 15.0 mph - N/A   Partly Cloudy
4:50 PM 59.0 °F - 17.6 °F 20% 30.17 in 10.0 mi NW 15.0 mph 20.7 mph N/A   Partly Cloudy
5:50 PM 59.0 °F - 17.6 °F 20% 30.16 in 10.0 mi NW 15.0 mph 20.7 mph N/A   Scattered Clouds
6:50 PM 59.0 °F - 19.4 °F 22% 30.15 in 10.0 mi WNW 15.0 mph - N/A   Mostly Cloudy
7:50 PM 57.2 °F - 21.2 °F 25% 30.16 in 10.0 mi NNW 8.1 mph - N/A   Mostly Cloudy
8:50 PM 51.8 °F - 32.0 °F 47% 30.18 in 10.0 mi NW 5.8 mph - N/A   Mostly Cloudy
9:50 PM 48.2 °F - 35.6 °F 62% 30.19 in 10.0 mi Calm Calm - N/A   Mostly Cloudy
10:15 PM 47.8 °F - 38.3 °F 70% 30.19 in 10.0 mi Calm Calm - N/A   Clear
10:35 PM 47.3 °F - 32.5 °F 57% 30.19 in 10.0 mi Calm Calm - N/A   Clear
10:55 PM 46.6 °F - 36.7 °F 68% 30.18 in 10.0 mi Calm Calm - 0.01 in   Clear
11:15 PM 46.4 °F - 36.7 °F 69% 30.18 in 10.0 mi Calm Calm - N/A   Clear
11:35 PM 45.0 °F - 36.7 °F 73% 30.18 in 10.0 mi Calm Calm - N/A   Clear
11:55 PM 44.2 °F - 36.3 °F 74% 30.18 in 10.0 mi Calm Calm - N/A   Clear